Date String (YYYY-MM-DD hh:mm:ss) UTC,Instrument flags,Ambient pressure (hPa),Sample flow (lpm),Bypass flow (lpm),Sample temperature (°C),Ambient temperature (°C),ASC tube jacket temperature (°C),LED temperature (°C),Box temperature (°C),Sample RH (%),Span deviation,Mass concentration (μg/m³),Mass concentration (μg/m³),Mass concentration (μg/m³)
DateTimeUTC,F1_M11,P_M11,Q1_M11,Q2_M11,T1_M11,T2_M11,T3_M11,T4_M11,T5_M11,U1_M11,ZSPAN_M11,X0_M11,X2_M11,X1_M11
2022-12-27 10:00:00,,0821.3,5.03,0.00,21.7,20.7,00.0,30.6,23.5,14.6,0000.0,0003.53,0002.92,0002.76
2022-12-27 10:01:00,,0821.3,5.02,0.00,21.7,20.6,00.0,30.6,23.5,14.1,0000.0,0002.95,0002.41,0002.25
2022-12-27 10:02:00,,0821.3,4.99,0.00,21.7,20.7,00.0,30.6,23.5,14.6,0000.0,0002.37,0002.01,0001.88
2022-12-27 10:03:00,,0821.2,4.99,0.00,21.7,20.7,00.0,30.6,23.5,14.1,0000.0,0002.04,0001.73,0001.60
2022-12-27 10:04:00,,0821.2,4.97,0.00,21.7,20.7,00.0,30.6,23.5,14.2,0000.0,0001.96,0001.65,0001.53
2022-12-27 10:05:00,,0821.2,5.01,0.00,21.7,20.7,00.0,30.6,23.5,14.2,0000.0,0001.88,0001.58,0001.46
2022-12-27 10:06:00,,0821.1,5.02,0.00,21.8,20.7,00.0,30.6,23.5,14.0,0000.0,0001.80,0001.51,0001.39
2022-12-27 10:07:00,,0821.0,5.01,0.00,21.8,20.7,00.0,30.6,23.5,13.9,0000.0,0001.53,0001.26,0001.15
2022-12-27 10:08:00,,0821.0,4.98,0.00,21.8,20.7,00.0,30.6,23.6,14.0,0000.0,0001.22,0000.99,0000.90
2022-12-27 10:09:00,,0821.0,4.98,0.00,21.8,20.7,00.0,30.6,23.6,14.0,0000.0,0001.02,0000.83,0000.76
2022-12-27 10:10:00,,0821.0,5.02,0.00,21.8,20.7,00.0,30.6,23.5,14.2,0000.0,0000.92,0000.75,0000.70
2022-12-27 10:11:00,,0821.0,5.03,0.00,21.8,20.7,00.0,30.6,23.6,14.0,0000.0,0000.80,0000.68,0000.64
2022-12-27 10:12:00,,0821.0,5.00,0.00,21.8,20.7,00.0,30.7,23.6,14.5,0000.0,0000.85,0000.72,0000.67
2022-12-27 10:13:00,,0821.0,4.98,0.00,21.8,20.4,00.0,30.7,23.5,15.7,0000.0,0001.10,0000.94,0000.88
2022-12-27 10:14:00,,0820.9,4.97,0.00,21.7,20.2,00.0,30.7,23.4,15.4,0000.0,0001.39,0001.20,0001.13
2022-12-27 10:15:00,,0820.9,5.02,0.00,21.7,20.0,00.0,30.6,23.3,15.2,0000.0,0001.59,0001.33,0001.27
2022-12-27 10:16:00,,0820.9,5.01,0.00,21.6,19.8,00.0,30.6,23.3,15.0,0000.0,0001.67,0001.42,0001.36
2022-12-27 10:17:00,,0820.9,5.00,0.00,21.6,19.8,00.0,30.6,23.2,14.8,0000.0,0001.76,0001.48,0001.42
2022-12-27 10:18:00,,0820.9,4.96,0.00,21.6,19.8,00.0,30.6,23.2,14.7,0000.0,0001.81,0001.52,0001.46
2022-12-27 10:19:00,,0820.9,5.00,0.00,21.5,19.8,00.0,30.6,23.2,14.8,0000.0,0001.89,0001.59,0001.52
2022-12-27 10:20:00,,0820.9,4.99,0.00,21.5,19.8,00.0,30.5,23.1,14.9,0000.0,0003.13,0001.69,0001.60
2022-12-27 10:21:00,,0820.9,5.03,0.00,21.5,19.7,00.0,30.5,23.1,15.0,0000.0,0003.53,0001.79,0001.70
2022-12-27 10:22:00,,0820.8,5.01,0.00,21.5,19.7,00.0,30.5,23.1,15.1,0000.0,0003.71,0001.92,0001.80
2022-12-27 10:23:00,,0820.8,4.98,0.00,21.4,19.7,00.0,30.5,23.1,15.3,0000.0,0003.78,0002.00,0001.90
2022-12-27 10:24:00,,0820.8,4.98,0.00,21.4,19.7,00.0,30.5,23.1,15.4,0000.0,0003.62,0001.86,0001.77
2022-12-27 10:25:00,,0820.8,4.98,0.00,21.4,19.8,00.0,30.5,23.0,15.0,0000.0,0003.43,0001.66,0001.54
2022-12-27 10:26:00,,0820.8,5.01,0.00,21.4,19.8,00.0,30.4,23.0,15.1,0000.0,0003.27,0001.58,0001.46
2022-12-27 10:27:00,,0820.7,5.02,0.00,21.3,19.9,00.0,30.4,23.1,14.9,0000.0,0003.23,0001.52,0001.40
2022-12-27 10:28:00,,0820.6,5.00,0.00,21.4,20.0,00.0,30.4,23.1,15.1,0000.0,0003.21,0001.52,0001.40
2022-12-27 10:29:00,,0820.7,4.99,0.00,21.4,20.1,00.0,30.4,23.1,15.3,0000.0,0003.26,0001.57,0001.45
2022-12-27 10:30:00,,0820.7,4.96,0.00,21.4,20.1,00.0,30.4,23.1,15.1,0000.0,0003.29,0001.61,0001.50
2022-12-27 10:31:00,,0820.7,5.00,0.00,21.4,20.1,00.0,30.4,23.1,15.9,0000.0,0002.86,0001.72,0001.60
2022-12-27 10:32:00,,0820.7,5.01,0.00,21.4,20.0,00.0,30.4,23.1,16.0,0000.0,0003.00,0001.94,0001.81
2022-12-27 10:33:00,,0820.7,5.03,0.00,21.4,20.0,00.0,30.4,23.2,16.0,0000.0,0003.15,0002.09,0001.96
2022-12-27 10:34:00,,0820.8,4.99,0.00,21.4,20.0,00.0,30.4,23.1,16.0,0000.0,0003.30,0002.23,0002.11
2022-12-27 10:35:00,,0820.7,4.98,0.00,21.4,19.9,00.0,30.3,23.0,16.1,0000.0,0003.57,0002.45,0002.29
2022-12-27 10:36:00,,0820.7,4.98,0.00,21.3,19.8,00.0,30.3,23.0,16.1,0000.0,0003.85,0002.67,0002.51
2022-12-27 10:37:00,,0820.6,4.97,0.00,21.3,19.8,00.0,30.3,23.0,16.0,0000.0,0004.11,0002.90,0002.74
2022-12-27 10:38:00,,0820.6,5.00,0.00,21.3,19.9,00.0,30.3,23.1,15.7,0000.0,0004.23,0003.00,0002.86
2022-12-27 10:39:00,,0820.6,5.02,0.00,21.3,20.0,00.0,30.3,23.1,15.3,0000.0,0004.35,0003.03,0002.87
2022-12-27 10:40:00,,0820.6,5.03,0.00,21.3,20.0,00.0,30.3,23.1,15.3,0000.0,0004.45,0003.01,0002.84
2022-12-27 10:41:00,,0820.6,4.98,0.00,21.3,20.0,00.0,30.3,23.1,15.4,0000.0,0004.45,0002.99,0002.80
2022-12-27 10:42:00,,0820.6,4.98,0.00,21.3,20.0,00.0,30.3,23.1,15.4,0000.0,0003.88,0002.89,0002.71
2022-12-27 10:43:00,,0820.6,4.99,0.00,21.3,20.1,00.0,30.3,23.1,15.2,0000.0,0003.29,0002.58,0002.41
2022-12-27 10:44:00,,0820.6,5.02,0.00,21.3,20.1,00.0,30.3,23.1,15.0,0000.0,0003.08,0002.39,0002.21
2022-12-27 10:45:00,,0820.6,5.03,0.00,21.3,20.1,00.0,30.3,23.1,15.0,0000.0,0002.89,0002.19,0001.99
2022-12-27 10:46:00,,0820.6,5.00,0.00,21.3,20.1,00.0,30.3,23.0,15.0,0000.0,0002.54,0001.90,0001.74
2022-12-27 10:47:00,,0820.6,4.97,0.00,21.4,20.1,00.0,30.3,23.1,14.9,0000.0,0002.16,0001.60,0001.47
2022-12-27 10:48:00,,0820.6,5.00,0.00,21.3,20.0,00.0,30.3,23.0,14.8,0000.0,0001.87,0001.33,0001.20
2022-12-27 10:49:00,,0820.4,4.99,0.00,21.3,19.9,00.0,30.3,23.0,14.8,0000.0,0001.71,0001.19,0001.05
2022-12-27 10:50:00,,0820.3,5.01,0.00,21.3,19.8,00.0,30.3,22.9,14.7,0000.0,0001.54,0001.11,0000.99
2022-12-27 10:51:00,,0820.2,4.98,0.00,21.3,19.8,00.0,30.3,23.0,13.3,0000.0,0001.36,0001.04,0000.93
2022-12-27 10:52:00,,0820.3,5.02,0.00,21.3,19.9,00.0,30.2,23.0,13.5,0000.0,0001.24,0000.95,0000.85
2022-12-27 10:53:00,,0820.4,4.99,0.00,21.3,19.8,00.0,30.2,23.0,14.4,0000.0,0001.13,0000.88,0000.79
2022-12-27 10:54:00,,0820.4,4.98,0.00,21.3,19.8,00.0,30.2,23.0,14.6,0000.0,0001.09,0000.85,0000.76
2022-12-27 10:55:00,,0820.3,4.97,0.00,21.3,19.9,00.0,30.2,23.1,14.7,0000.0,0000.99,0000.78,0000.72
2022-12-27 10:56:00,,0820.3,5.02,0.00,21.3,20.0,00.0,30.2,23.1,14.8,0000.0,0000.88,0000.71,0000.67
2022-12-27 10:57:00,,0820.2,5.03,0.00,21.3,20.1,00.0,30.2,23.1,14.5,0000.0,0000.83,0000.66,0000.61
2022-12-27 10:58:00,,0820.2,4.99,0.00,21.3,20.1,00.0,30.2,23.1,14.3,0000.0,0000.82,0000.63,0000.57
2022-12-27 10:59:00,,0820.2,4.97,0.00,21.3,20.0,00.0,30.2,23.1,14.3,0000.0,0000.72,0000.57,0000.53
